<?xml version="1.0" encoding="UTF-8" standalone="no" ?>
<gpx xmlns="http://www.topografix.com/GPX/1/1" xmlns:xsi="http://www.w3.org/2001/XMLSchema-instance" xsi:schemaLocation="http://www.topografix.com/GPX/1/1 http://www.topografix.com/GPX/1/1/gpx.xsd" version="1.1" creator="VisuGPX - https://www.visugpx.com">
  <metadata>
    <name>Etape_15,_Le_Puy_en_Velay,_Les_Estables,_36_km</name>
    <desc><![CDATA[<html dir="ltr"><head></head><body contenteditable="true">comment ...</body></html>]]></desc>
  </metadata>
  <trk>
    <name><![CDATA[Etape 15, Le Puy en Velay, Les Estables, 36 km]]></name>
    <desc><![CDATA[<html dir="ltr"><head></head><body contenteditable="true">comment ...</body></html>]]></desc>
    <extensions>
      <line xmlns="http://www.topografix.com/GPX/gpx_style/0/2">
        <color>0000FF</color>
        <width>4</width>
      </line>
    </extensions>
    <trkseg>
      <trkpt lat="45.04559" lon="3.88414">
        <ele>622</ele>
        <time>2022-12-22T15:37:14Z</time>
      </trkpt>
      <trkpt lat="45.04565" lon="3.8839">
        <ele>622</ele>
        <time>2022-12-22T15:37:14Z</time>
      </trkpt>
      <trkpt lat="45.04474" lon="3.88407">
        <ele>622</ele>
        <time>2022-12-22T15:37:14Z</time>
      </trkpt>
      <trkpt lat="45.04473" lon="3.88395">
        <ele>622</ele>
        <time>2022-12-22T15:37:14Z</time>
      </trkpt>
      <trkpt lat="45.04468" lon="3.88389">
        <ele>622</ele>
        <time>2022-12-22T15:37:14Z</time>
      </trkpt>
      <trkpt lat="45.04432" lon="3.88378">
        <ele>622</ele>
        <time>2022-12-22T15:37:14Z</time>
      </trkpt>
      <trkpt lat="45.04427" lon="3.88421">
        <ele>622</ele>
        <time>2022-12-22T15:37:14Z</time>
      </trkpt>
      <trkpt lat="45.04412" lon="3.88421">
        <ele>622</ele>
        <time>2022-12-22T15:37:14Z</time>
      </trkpt>
      <trkpt lat="45.0441" lon="3.88439">
        <ele>622</ele>
        <time>2022-12-22T15:37:14Z</time>
      </trkpt>
      <trkpt lat="45.04399" lon="3.88437">
        <ele>622</ele>
        <time>2022-12-22T15:37:14Z</time>
      </trkpt>
      <trkpt lat="45.04402" lon="3.88491">
        <ele>622</ele>
        <time>2022-12-22T15:37:14Z</time>
      </trkpt>
      <trkpt lat="45.04298" lon="3.88544">
        <ele>622</ele>
        <time>2022-12-22T15:37:14Z</time>
      </trkpt>
      <trkpt lat="45.04256" lon="3.88551">
        <ele>622</ele>
        <time>2022-12-22T15:37:14Z</time>
      </trkpt>
      <trkpt lat="45.0426" lon="3.88673">
        <ele>622</ele>
        <time>2022-12-22T15:37:14Z</time>
      </trkpt>
      <trkpt lat="45.04203" lon="3.88709">
        <ele>622</ele>
        <time>2022-12-22T15:37:14Z</time>
      </trkpt>
      <trkpt lat="45.04152" lon="3.88753">
        <ele>622</ele>
        <time>2022-12-22T15:37:14Z</time>
      </trkpt>
      <trkpt lat="45.04131" lon="3.88787">
        <ele>622</ele>
        <time>2022-12-22T15:37:14Z</time>
      </trkpt>
      <trkpt lat="45.04119" lon="3.88825">
        <ele>622</ele>
        <time>2022-12-22T15:37:14Z</time>
      </trkpt>
      <trkpt lat="45.04109" lon="3.88848">
        <ele>625</ele>
        <time>2022-12-22T15:37:14Z</time>
      </trkpt>
      <trkpt lat="45.04099" lon="3.88945">
        <ele>630</ele>
        <time>2022-12-22T15:37:14Z</time>
      </trkpt>
      <trkpt lat="45.0411" lon="3.89006">
        <ele>634</ele>
        <time>2022-12-22T15:37:14Z</time>
      </trkpt>
      <trkpt lat="45.04116" lon="3.8902">
        <ele>632</ele>
        <time>2022-12-22T15:37:14Z</time>
      </trkpt>
      <trkpt lat="45.04123" lon="3.89056">
        <ele>635</ele>
        <time>2022-12-22T15:37:14Z</time>
      </trkpt>
      <trkpt lat="45.04149" lon="3.89177">
        <ele>643</ele>
        <time>2022-12-22T15:37:14Z</time>
      </trkpt>
      <trkpt lat="45.04082" lon="3.89256">
        <ele>653</ele>
        <time>2022-12-22T15:37:14Z</time>
      </trkpt>
      <trkpt lat="45.04047" lon="3.89326">
        <ele>658</ele>
        <time>2022-12-22T15:37:14Z</time>
      </trkpt>
      <trkpt lat="45.04026" lon="3.89433">
        <ele>666</ele>
        <time>2022-12-22T15:37:14Z</time>
      </trkpt>
      <trkpt lat="45.03998" lon="3.89559">
        <ele>674</ele>
        <time>2022-12-22T15:37:14Z</time>
      </trkpt>
      <trkpt lat="45.03948" lon="3.896">
        <ele>680</ele>
        <time>2022-12-22T15:37:14Z</time>
      </trkpt>
      <trkpt lat="45.03862" lon="3.89702">
        <ele>695</ele>
        <time>2022-12-22T15:37:14Z</time>
      </trkpt>
      <trkpt lat="45.03766" lon="3.89699">
        <ele>702</ele>
        <time>2022-12-22T15:37:14Z</time>
      </trkpt>
      <trkpt lat="45.03727" lon="3.89761">
        <ele>712</ele>
        <time>2022-12-22T15:37:14Z</time>
      </trkpt>
      <trkpt lat="45.03685" lon="3.89797">
        <ele>720</ele>
        <time>2022-12-22T15:37:14Z</time>
      </trkpt>
      <trkpt lat="45.03632" lon="3.89847">
        <ele>736</ele>
        <time>2022-12-22T15:37:14Z</time>
      </trkpt>
      <trkpt lat="45.03578" lon="3.89899">
        <ele>752</ele>
        <time>2022-12-22T15:37:14Z</time>
      </trkpt>
      <trkpt lat="45.03563" lon="3.89912">
        <ele>764</ele>
        <time>2022-12-22T15:37:14Z</time>
      </trkpt>
      <trkpt lat="45.03552" lon="3.89936">
        <ele>770</ele>
        <time>2022-12-22T15:37:14Z</time>
      </trkpt>
      <trkpt lat="45.03537" lon="3.90009">
        <ele>772</ele>
        <time>2022-12-22T15:37:14Z</time>
      </trkpt>
      <trkpt lat="45.03532" lon="3.90021">
        <ele>774</ele>
        <time>2022-12-22T15:37:14Z</time>
      </trkpt>
      <trkpt lat="45.03529" lon="3.90034">
        <ele>774</ele>
        <time>2022-12-22T15:37:14Z</time>
      </trkpt>
      <trkpt lat="45.03498" lon="3.90069">
        <ele>775</ele>
        <time>2022-12-22T15:37:14Z</time>
      </trkpt>
      <trkpt lat="45.03483" lon="3.90115">
        <ele>775</ele>
        <time>2022-12-22T15:37:14Z</time>
      </trkpt>
      <trkpt lat="45.03377" lon="3.90154">
        <ele>775</ele>
        <time>2022-12-22T15:37:14Z</time>
      </trkpt>
      <trkpt lat="45.03308" lon="3.90204">
        <ele>775</ele>
        <time>2022-12-22T15:37:14Z</time>
      </trkpt>
      <trkpt lat="45.03281" lon="3.90191">
        <ele>775</ele>
        <time>2022-12-22T15:37:14Z</time>
      </trkpt>
      <trkpt lat="45.03267" lon="3.90178">
        <ele>780</ele>
        <time>2022-12-22T15:37:14Z</time>
      </trkpt>
      <trkpt lat="45.03252" lon="3.90176">
        <ele>781</ele>
        <time>2022-12-22T15:37:14Z</time>
      </trkpt>
      <trkpt lat="45.03232" lon="3.90189">
        <ele>784</ele>
        <time>2022-12-22T15:37:14Z</time>
      </trkpt>
      <trkpt lat="45.0322" lon="3.90212">
        <ele>786</ele>
        <time>2022-12-22T15:37:14Z</time>
      </trkpt>
      <trkpt lat="45.03218" lon="3.90238">
        <ele>790</ele>
        <time>2022-12-22T15:37:14Z</time>
      </trkpt>
      <trkpt lat="45.03216" lon="3.9025">
        <ele>791</ele>
        <time>2022-12-22T15:37:14Z</time>
      </trkpt>
      <trkpt lat="45.03205" lon="3.90259">
        <ele>791</ele>
        <time>2022-12-22T15:37:14Z</time>
      </trkpt>
      <trkpt lat="45.03169" lon="3.90265">
        <ele>791</ele>
        <time>2022-12-22T15:37:14Z</time>
      </trkpt>
      <trkpt lat="45.03158" lon="3.90273">
        <ele>791</ele>
        <time>2022-12-22T15:37:14Z</time>
      </trkpt>
      <trkpt lat="45.03151" lon="3.90287">
        <ele>791</ele>
        <time>2022-12-22T15:37:14Z</time>
      </trkpt>
      <trkpt lat="45.03151" lon="3.90301">
        <ele>791</ele>
        <time>2022-12-22T15:37:14Z</time>
      </trkpt>
      <trkpt lat="45.03175" lon="3.90523">
        <ele>791</ele>
        <time>2022-12-22T15:37:14Z</time>
      </trkpt>
      <trkpt lat="45.03162" lon="3.9054">
        <ele>791</ele>
        <time>2022-12-22T15:37:14Z</time>
      </trkpt>
      <trkpt lat="45.03144" lon="3.90546">
        <ele>791</ele>
        <time>2022-12-22T15:37:14Z</time>
      </trkpt>
      <trkpt lat="45.03118" lon="3.90548">
        <ele>791</ele>
        <time>2022-12-22T15:37:14Z</time>
      </trkpt>
      <trkpt lat="45.03097" lon="3.90552">
        <ele>791</ele>
        <time>2022-12-22T15:37:14Z</time>
      </trkpt>
      <trkpt lat="45.03093" lon="3.90566">
        <ele>791</ele>
        <time>2022-12-22T15:37:14Z</time>
      </trkpt>
      <trkpt lat="45.03101" lon="3.90601">
        <ele>788</ele>
        <time>2022-12-22T15:37:14Z</time>
      </trkpt>
      <trkpt lat="45.03098" lon="3.90635">
        <ele>789</ele>
        <time>2022-12-22T15:37:14Z</time>
      </trkpt>
      <trkpt lat="45.03113" lon="3.90696">
        <ele>791</ele>
        <time>2022-12-22T15:37:14Z</time>
      </trkpt>
      <trkpt lat="45.03077" lon="3.9073">
        <ele>789</ele>
        <time>2022-12-22T15:37:14Z</time>
      </trkpt>
      <trkpt lat="45.03009" lon="3.90763">
        <ele>794</ele>
        <time>2022-12-22T15:37:14Z</time>
      </trkpt>
      <trkpt lat="45.02979" lon="3.90806">
        <ele>800</ele>
        <time>2022-12-22T15:37:14Z</time>
      </trkpt>
      <trkpt lat="45.02959" lon="3.90829">
        <ele>805</ele>
        <time>2022-12-22T15:37:14Z</time>
      </trkpt>
      <trkpt lat="45.02935" lon="3.90875">
        <ele>807</ele>
        <time>2022-12-22T15:37:14Z</time>
      </trkpt>
      <trkpt lat="45.02903" lon="3.90909">
        <ele>812</ele>
        <time>2022-12-22T15:37:14Z</time>
      </trkpt>
      <trkpt lat="45.02865" lon="3.90925">
        <ele>813</ele>
        <time>2022-12-22T15:37:14Z</time>
      </trkpt>
      <trkpt lat="45.02806" lon="3.90967">
        <ele>820</ele>
        <time>2022-12-22T15:37:14Z</time>
      </trkpt>
      <trkpt lat="45.02738" lon="3.90994">
        <ele>826</ele>
        <time>2022-12-22T15:37:14Z</time>
      </trkpt>
      <trkpt lat="45.02718" lon="3.91012">
        <ele>829</ele>
        <time>2022-12-22T15:37:14Z</time>
      </trkpt>
      <trkpt lat="45.02696" lon="3.91017">
        <ele>833</ele>
        <time>2022-12-22T15:37:14Z</time>
      </trkpt>
      <trkpt lat="45.02619" lon="3.91012">
        <ele>839</ele>
        <time>2022-12-22T15:37:14Z</time>
      </trkpt>
      <trkpt lat="45.02577" lon="3.91025">
        <ele>844</ele>
        <time>2022-12-22T15:37:14Z</time>
      </trkpt>
      <trkpt lat="45.02513" lon="3.91049">
        <ele>846</ele>
        <time>2022-12-22T15:37:14Z</time>
      </trkpt>
      <trkpt lat="45.02504" lon="3.91058">
        <ele>845</ele>
        <time>2022-12-22T15:37:14Z</time>
      </trkpt>
      <trkpt lat="45.0245" lon="3.91051">
        <ele>839</ele>
        <time>2022-12-22T15:37:14Z</time>
      </trkpt>
      <trkpt lat="45.02422" lon="3.9106">
        <ele>835</ele>
        <time>2022-12-22T15:37:14Z</time>
      </trkpt>
      <trkpt lat="45.0239" lon="3.91067">
        <ele>836</ele>
        <time>2022-12-22T15:37:14Z</time>
      </trkpt>
      <trkpt lat="45.02254" lon="3.91149">
        <ele>840</ele>
        <time>2022-12-22T15:37:14Z</time>
      </trkpt>
      <trkpt lat="45.02149" lon="3.9125">
        <ele>837</ele>
        <time>2022-12-22T15:37:14Z</time>
      </trkpt>
      <trkpt lat="45.02093" lon="3.91326">
        <ele>833</ele>
        <time>2022-12-22T15:37:14Z</time>
      </trkpt>
      <trkpt lat="45.02017" lon="3.91336">
        <ele>831</ele>
        <time>2022-12-22T15:37:14Z</time>
      </trkpt>
      <trkpt lat="45.01939" lon="3.91367">
        <ele>825</ele>
        <time>2022-12-22T15:37:14Z</time>
      </trkpt>
      <trkpt lat="45.01884" lon="3.91386">
        <ele>825</ele>
        <time>2022-12-22T15:37:14Z</time>
      </trkpt>
      <trkpt lat="45.01713" lon="3.91417">
        <ele>819</ele>
        <time>2022-12-22T15:37:14Z</time>
      </trkpt>
      <trkpt lat="45.01634" lon="3.91477">
        <ele>818</ele>
        <time>2022-12-22T15:37:14Z</time>
      </trkpt>
      <trkpt lat="45.01595" lon="3.91485">
        <ele>818</ele>
        <time>2022-12-22T15:37:14Z</time>
      </trkpt>
      <trkpt lat="45.01564" lon="3.91383">
        <ele>815</ele>
        <time>2022-12-22T15:37:14Z</time>
      </trkpt>
      <trkpt lat="45.01556" lon="3.91371">
        <ele>814</ele>
        <time>2022-12-22T15:37:14Z</time>
      </trkpt>
      <trkpt lat="45.01547" lon="3.91359">
        <ele>811</ele>
        <time>2022-12-22T15:37:14Z</time>
      </trkpt>
      <trkpt lat="45.01539" lon="3.91364">
        <ele>812</ele>
        <time>2022-12-22T15:37:14Z</time>
      </trkpt>
      <trkpt lat="45.015" lon="3.91379">
        <ele>810</ele>
        <time>2022-12-22T15:37:14Z</time>
      </trkpt>
      <trkpt lat="45.01454" lon="3.91367">
        <ele>809</ele>
        <time>2022-12-22T15:37:14Z</time>
      </trkpt>
      <trkpt lat="45.01423" lon="3.91347">
        <ele>808</ele>
        <time>2022-12-22T15:37:14Z</time>
      </trkpt>
      <trkpt lat="45.01415" lon="3.91346">
        <ele>808</ele>
        <time>2022-12-22T15:37:14Z</time>
      </trkpt>
      <trkpt lat="45.01396" lon="3.91372">
        <ele>807</ele>
        <time>2022-12-22T15:37:14Z</time>
      </trkpt>
      <trkpt lat="45.01382" lon="3.91386">
        <ele>807</ele>
        <time>2022-12-22T15:37:14Z</time>
      </trkpt>
      <trkpt lat="45.01361" lon="3.91393">
        <ele>807</ele>
        <time>2022-12-22T15:37:14Z</time>
      </trkpt>
      <trkpt lat="45.01343" lon="3.91406">
        <ele>807</ele>
        <time>2022-12-22T15:37:14Z</time>
      </trkpt>
      <trkpt lat="45.013" lon="3.91251">
        <ele>807</ele>
        <time>2022-12-22T15:37:14Z</time>
      </trkpt>
      <trkpt lat="45.01343" lon="3.90991">
        <ele>807</ele>
        <time>2022-12-22T15:37:14Z</time>
      </trkpt>
      <trkpt lat="45.0134" lon="3.90938">
        <ele>807</ele>
        <time>2022-12-22T15:37:14Z</time>
      </trkpt>
      <trkpt lat="45.01351" lon="3.90901">
        <ele>807</ele>
        <time>2022-12-22T15:37:14Z</time>
      </trkpt>
      <trkpt lat="45.01346" lon="3.9088">
        <ele>807</ele>
        <time>2022-12-22T15:37:14Z</time>
      </trkpt>
      <trkpt lat="45.01251" lon="3.90706">
        <ele>807</ele>
        <time>2022-12-22T15:37:14Z</time>
      </trkpt>
      <trkpt lat="45.01242" lon="3.90674">
        <ele>807</ele>
        <time>2022-12-22T15:37:14Z</time>
      </trkpt>
      <trkpt lat="45.01225" lon="3.90684">
        <ele>807</ele>
        <time>2022-12-22T15:37:14Z</time>
      </trkpt>
      <trkpt lat="45.01209" lon="3.9071">
        <ele>807</ele>
        <time>2022-12-22T15:37:14Z</time>
      </trkpt>
      <trkpt lat="45.01171" lon="3.90747">
        <ele>805</ele>
        <time>2022-12-22T15:37:14Z</time>
      </trkpt>
      <trkpt lat="45.01138" lon="3.90796">
        <ele>806</ele>
        <time>2022-12-22T15:37:14Z</time>
      </trkpt>
      <trkpt lat="45.01112" lon="3.90856">
        <ele>803</ele>
        <time>2022-12-22T15:37:14Z</time>
      </trkpt>
      <trkpt lat="45.01064" lon="3.90982">
        <ele>803</ele>
        <time>2022-12-22T15:37:14Z</time>
      </trkpt>
      <trkpt lat="45.01039" lon="3.91041">
        <ele>797</ele>
        <time>2022-12-22T15:37:14Z</time>
      </trkpt>
      <trkpt lat="45.01005" lon="3.91097">
        <ele>791</ele>
        <time>2022-12-22T15:37:14Z</time>
      </trkpt>
      <trkpt lat="45.00948" lon="3.91099">
        <ele>784</ele>
        <time>2022-12-22T15:37:14Z</time>
      </trkpt>
      <trkpt lat="45.00869" lon="3.91065">
        <ele>790</ele>
        <time>2022-12-22T15:37:14Z</time>
      </trkpt>
      <trkpt lat="45.00798" lon="3.91068">
        <ele>777</ele>
        <time>2022-12-22T15:37:14Z</time>
      </trkpt>
      <trkpt lat="45.00747" lon="3.91077">
        <ele>762</ele>
        <time>2022-12-22T15:37:14Z</time>
      </trkpt>
      <trkpt lat="45.00703" lon="3.91105">
        <ele>754</ele>
        <time>2022-12-22T15:37:14Z</time>
      </trkpt>
      <trkpt lat="45.00664" lon="3.91145">
        <ele>750</ele>
        <time>2022-12-22T15:37:14Z</time>
      </trkpt>
      <trkpt lat="45.00623" lon="3.91183">
        <ele>742</ele>
        <time>2022-12-22T15:37:14Z</time>
      </trkpt>
      <trkpt lat="45.00599" lon="3.91238">
        <ele>738</ele>
        <time>2022-12-22T15:37:14Z</time>
      </trkpt>
      <trkpt lat="45.00551" lon="3.91243">
        <ele>734</ele>
        <time>2022-12-22T15:37:14Z</time>
      </trkpt>
      <trkpt lat="45.00503" lon="3.91278">
        <ele>726</ele>
        <time>2022-12-22T15:37:14Z</time>
      </trkpt>
      <trkpt lat="45.00466" lon="3.91308">
        <ele>721</ele>
        <time>2022-12-22T15:37:14Z</time>
      </trkpt>
      <trkpt lat="45.00425" lon="3.91348">
        <ele>720</ele>
        <time>2022-12-22T15:37:14Z</time>
      </trkpt>
      <trkpt lat="45.0038" lon="3.91315">
        <ele>713</ele>
        <time>2022-12-22T15:37:14Z</time>
      </trkpt>
      <trkpt lat="45.00331" lon="3.91297">
        <ele>705</ele>
        <time>2022-12-22T15:37:14Z</time>
      </trkpt>
      <trkpt lat="45.00308" lon="3.91342">
        <ele>701</ele>
        <time>2022-12-22T15:37:14Z</time>
      </trkpt>
      <trkpt lat="45.00312" lon="3.91418">
        <ele>696</ele>
        <time>2022-12-22T15:37:14Z</time>
      </trkpt>
      <trkpt lat="45.00276" lon="3.91463">
        <ele>691</ele>
        <time>2022-12-22T15:37:14Z</time>
      </trkpt>
      <trkpt lat="45.00232" lon="3.91496">
        <ele>684</ele>
        <time>2022-12-22T15:37:14Z</time>
      </trkpt>
      <trkpt lat="45.00189" lon="3.91523">
        <ele>681</ele>
        <time>2022-12-22T15:37:14Z</time>
      </trkpt>
      <trkpt lat="45.00142" lon="3.91547">
        <ele>676</ele>
        <time>2022-12-22T15:37:14Z</time>
      </trkpt>
      <trkpt lat="45.00098" lon="3.9157">
        <ele>673</ele>
        <time>2022-12-22T15:37:14Z</time>
      </trkpt>
      <trkpt lat="45.00094" lon="3.9161">
        <ele>668</ele>
        <time>2022-12-22T15:37:14Z</time>
      </trkpt>
      <trkpt lat="45.00108" lon="3.91668">
        <ele>663</ele>
        <time>2022-12-22T15:37:14Z</time>
      </trkpt>
      <trkpt lat="45.00073" lon="3.91699">
        <ele>657</ele>
        <time>2022-12-22T15:37:14Z</time>
      </trkpt>
      <trkpt lat="45.0003" lon="3.91702">
        <ele>654</ele>
        <time>2022-12-22T15:37:14Z</time>
      </trkpt>
      <trkpt lat="44.99983" lon="3.91704">
        <ele>646</ele>
        <time>2022-12-22T15:37:14Z</time>
      </trkpt>
      <trkpt lat="44.99927" lon="3.91707">
        <ele>642</ele>
        <time>2022-12-22T15:37:14Z</time>
      </trkpt>
      <trkpt lat="44.99888" lon="3.91739">
        <ele>633</ele>
        <time>2022-12-22T15:37:14Z</time>
      </trkpt>
      <trkpt lat="44.99841" lon="3.91712">
        <ele>630</ele>
        <time>2022-12-22T15:37:14Z</time>
      </trkpt>
      <trkpt lat="44.99752" lon="3.91742">
        <ele>629</ele>
        <time>2022-12-22T15:37:14Z</time>
      </trkpt>
      <trkpt lat="44.99735" lon="3.91785">
        <ele>631</ele>
        <time>2022-12-22T15:37:14Z</time>
      </trkpt>
      <trkpt lat="44.99695" lon="3.91833">
        <ele>632</ele>
        <time>2022-12-22T15:37:14Z</time>
      </trkpt>
      <trkpt lat="44.99647" lon="3.91841">
        <ele>634</ele>
        <time>2022-12-22T15:37:14Z</time>
      </trkpt>
      <trkpt lat="44.99587" lon="3.91824">
        <ele>635</ele>
        <time>2022-12-22T15:37:14Z</time>
      </trkpt>
      <trkpt lat="44.99537" lon="3.91802">
        <ele>640</ele>
        <time>2022-12-22T15:37:14Z</time>
      </trkpt>
      <trkpt lat="44.99491" lon="3.91783">
        <ele>647</ele>
        <time>2022-12-22T15:37:14Z</time>
      </trkpt>
      <trkpt lat="44.99447" lon="3.91808">
        <ele>649</ele>
        <time>2022-12-22T15:37:14Z</time>
      </trkpt>
      <trkpt lat="44.99405" lon="3.91859">
        <ele>658</ele>
        <time>2022-12-22T15:37:14Z</time>
      </trkpt>
      <trkpt lat="44.99361" lon="3.91908">
        <ele>664</ele>
        <time>2022-12-22T15:37:14Z</time>
      </trkpt>
      <trkpt lat="44.99333" lon="3.91969">
        <ele>669</ele>
        <time>2022-12-22T15:37:14Z</time>
      </trkpt>
      <trkpt lat="44.993" lon="3.92035">
        <ele>677</ele>
        <time>2022-12-22T15:37:14Z</time>
      </trkpt>
      <trkpt lat="44.99255" lon="3.92071">
        <ele>678</ele>
        <time>2022-12-22T15:37:14Z</time>
      </trkpt>
      <trkpt lat="44.99206" lon="3.92058">
        <ele>685</ele>
        <time>2022-12-22T15:37:14Z</time>
      </trkpt>
      <trkpt lat="44.99162" lon="3.92021">
        <ele>694</ele>
        <time>2022-12-22T15:37:14Z</time>
      </trkpt>
      <trkpt lat="44.99129" lon="3.91946">
        <ele>701</ele>
        <time>2022-12-22T15:37:14Z</time>
      </trkpt>
      <trkpt lat="44.99083" lon="3.91898">
        <ele>713</ele>
        <time>2022-12-22T15:37:14Z</time>
      </trkpt>
      <trkpt lat="44.99063" lon="3.91825">
        <ele>721</ele>
        <time>2022-12-22T15:37:14Z</time>
      </trkpt>
      <trkpt lat="44.9907" lon="3.91751">
        <ele>724</ele>
        <time>2022-12-22T15:37:14Z</time>
      </trkpt>
      <trkpt lat="44.99075" lon="3.91701">
        <ele>732</ele>
        <time>2022-12-22T15:37:14Z</time>
      </trkpt>
      <trkpt lat="44.99017" lon="3.91664">
        <ele>740</ele>
        <time>2022-12-22T15:37:14Z</time>
      </trkpt>
      <trkpt lat="44.99091" lon="3.91578">
        <ele>748</ele>
        <time>2022-12-22T15:37:14Z</time>
      </trkpt>
      <trkpt lat="44.99076" lon="3.91559">
        <ele>749</ele>
        <time>2022-12-22T15:37:14Z</time>
      </trkpt>
      <trkpt lat="44.99018" lon="3.91544">
        <ele>753</ele>
        <time>2022-12-22T15:37:14Z</time>
      </trkpt>
      <trkpt lat="44.98971" lon="3.91502">
        <ele>767</ele>
        <time>2022-12-22T15:37:14Z</time>
      </trkpt>
      <trkpt lat="44.98914" lon="3.91415">
        <ele>777</ele>
        <time>2022-12-22T15:37:14Z</time>
      </trkpt>
      <trkpt lat="44.98859" lon="3.91351">
        <ele>777</ele>
        <time>2022-12-22T15:37:14Z</time>
      </trkpt>
      <trkpt lat="44.98795" lon="3.91339">
        <ele>784</ele>
        <time>2022-12-22T15:37:14Z</time>
      </trkpt>
      <trkpt lat="44.9874" lon="3.91363">
        <ele>789</ele>
        <time>2022-12-22T15:37:14Z</time>
      </trkpt>
      <trkpt lat="44.98689" lon="3.91383">
        <ele>792</ele>
        <time>2022-12-22T15:37:14Z</time>
      </trkpt>
      <trkpt lat="44.98634" lon="3.91384">
        <ele>797</ele>
        <time>2022-12-22T15:37:14Z</time>
      </trkpt>
      <trkpt lat="44.98584" lon="3.91397">
        <ele>801</ele>
        <time>2022-12-22T15:37:14Z</time>
      </trkpt>
      <trkpt lat="44.98542" lon="3.91433">
        <ele>808</ele>
        <time>2022-12-22T15:37:14Z</time>
      </trkpt>
      <trkpt lat="44.98503" lon="3.91451">
        <ele>809</ele>
        <time>2022-12-22T15:37:14Z</time>
      </trkpt>
      <trkpt lat="44.98461" lon="3.9138">
        <ele>808</ele>
        <time>2022-12-22T15:37:14Z</time>
      </trkpt>
      <trkpt lat="44.98426" lon="3.91354">
        <ele>809</ele>
        <time>2022-12-22T15:37:14Z</time>
      </trkpt>
      <trkpt lat="44.98404" lon="3.91381">
        <ele>810</ele>
        <time>2022-12-22T15:37:14Z</time>
      </trkpt>
      <trkpt lat="44.98405" lon="3.91433">
        <ele>812</ele>
        <time>2022-12-22T15:37:14Z</time>
      </trkpt>
      <trkpt lat="44.98399" lon="3.91521">
        <ele>815</ele>
        <time>2022-12-22T15:37:14Z</time>
      </trkpt>
      <trkpt lat="44.98365" lon="3.9158">
        <ele>816</ele>
        <time>2022-12-22T15:37:14Z</time>
      </trkpt>
      <trkpt lat="44.98293" lon="3.91666">
        <ele>822</ele>
        <time>2022-12-22T15:37:14Z</time>
      </trkpt>
      <trkpt lat="44.98247" lon="3.91701">
        <ele>830</ele>
        <time>2022-12-22T15:37:14Z</time>
      </trkpt>
      <trkpt lat="44.9818" lon="3.91688">
        <ele>833</ele>
        <time>2022-12-22T15:37:14Z</time>
      </trkpt>
      <trkpt lat="44.98151" lon="3.91741">
        <ele>839</ele>
        <time>2022-12-22T15:37:14Z</time>
      </trkpt>
      <trkpt lat="44.98143" lon="3.91807">
        <ele>840</ele>
        <time>2022-12-22T15:37:14Z</time>
      </trkpt>
      <trkpt lat="44.98134" lon="3.91867">
        <ele>842</ele>
        <time>2022-12-22T15:37:14Z</time>
      </trkpt>
      <trkpt lat="44.98103" lon="3.91915">
        <ele>845</ele>
        <time>2022-12-22T15:37:14Z</time>
      </trkpt>
      <trkpt lat="44.9804" lon="3.92019">
        <ele>850</ele>
        <time>2022-12-22T15:37:14Z</time>
      </trkpt>
      <trkpt lat="44.9801" lon="3.92068">
        <ele>852</ele>
        <time>2022-12-22T15:37:14Z</time>
      </trkpt>
      <trkpt lat="44.9798" lon="3.92115">
        <ele>856</ele>
        <time>2022-12-22T15:37:14Z</time>
      </trkpt>
      <trkpt lat="44.97949" lon="3.92162">
        <ele>858</ele>
        <time>2022-12-22T15:37:14Z</time>
      </trkpt>
      <trkpt lat="44.97923" lon="3.92218">
        <ele>861</ele>
        <time>2022-12-22T15:37:14Z</time>
      </trkpt>
      <trkpt lat="44.97898" lon="3.92274">
        <ele>869</ele>
        <time>2022-12-22T15:37:14Z</time>
      </trkpt>
      <trkpt lat="44.97869" lon="3.9233">
        <ele>871</ele>
        <time>2022-12-22T15:37:14Z</time>
      </trkpt>
      <trkpt lat="44.97838" lon="3.9238">
        <ele>873</ele>
        <time>2022-12-22T15:37:14Z</time>
      </trkpt>
      <trkpt lat="44.97807" lon="3.9243">
        <ele>878</ele>
        <time>2022-12-22T15:37:14Z</time>
      </trkpt>
      <trkpt lat="44.97778" lon="3.92483">
        <ele>880</ele>
        <time>2022-12-22T15:37:14Z</time>
      </trkpt>
      <trkpt lat="44.97705" lon="3.92565">
        <ele>886</ele>
        <time>2022-12-22T15:37:14Z</time>
      </trkpt>
      <trkpt lat="44.97669" lon="3.92616">
        <ele>888</ele>
        <time>2022-12-22T15:37:14Z</time>
      </trkpt>
      <trkpt lat="44.97616" lon="3.92708">
        <ele>888</ele>
        <time>2022-12-22T15:37:14Z</time>
      </trkpt>
      <trkpt lat="44.9758" lon="3.92748">
        <ele>887</ele>
        <time>2022-12-22T15:37:14Z</time>
      </trkpt>
      <trkpt lat="44.97536" lon="3.92771">
        <ele>883</ele>
        <time>2022-12-22T15:37:14Z</time>
      </trkpt>
      <trkpt lat="44.97445" lon="3.92808">
        <ele>881</ele>
        <time>2022-12-22T15:37:14Z</time>
      </trkpt>
      <trkpt lat="44.974" lon="3.92845">
        <ele>879</ele>
        <time>2022-12-22T15:37:14Z</time>
      </trkpt>
      <trkpt lat="44.97367" lon="3.92892">
        <ele>878</ele>
        <time>2022-12-22T15:37:14Z</time>
      </trkpt>
      <trkpt lat="44.97309" lon="3.93002">
        <ele>876</ele>
        <time>2022-12-22T15:37:14Z</time>
      </trkpt>
      <trkpt lat="44.97195" lon="3.93305">
        <ele>878</ele>
        <time>2022-12-22T15:37:14Z</time>
      </trkpt>
      <trkpt lat="44.97171" lon="3.93366">
        <ele>880</ele>
        <time>2022-12-22T15:37:14Z</time>
      </trkpt>
      <trkpt lat="44.9712" lon="3.93477">
        <ele>883</ele>
        <time>2022-12-22T15:37:14Z</time>
      </trkpt>
      <trkpt lat="44.97084" lon="3.93527">
        <ele>886</ele>
        <time>2022-12-22T15:37:14Z</time>
      </trkpt>
      <trkpt lat="44.97058" lon="3.93582">
        <ele>884</ele>
        <time>2022-12-22T15:37:14Z</time>
      </trkpt>
      <trkpt lat="44.97029" lon="3.93635">
        <ele>890</ele>
        <time>2022-12-22T15:37:14Z</time>
      </trkpt>
      <trkpt lat="44.97001" lon="3.93689">
        <ele>895</ele>
        <time>2022-12-22T15:37:14Z</time>
      </trkpt>
      <trkpt lat="44.96946" lon="3.938">
        <ele>889</ele>
        <time>2022-12-22T15:37:14Z</time>
      </trkpt>
      <trkpt lat="44.96891" lon="3.93918">
        <ele>888</ele>
        <time>2022-12-22T15:37:14Z</time>
      </trkpt>
      <trkpt lat="44.96852" lon="3.93968">
        <ele>889</ele>
        <time>2022-12-22T15:37:14Z</time>
      </trkpt>
      <trkpt lat="44.96489" lon="3.94382">
        <ele>890</ele>
        <time>2022-12-22T15:37:14Z</time>
      </trkpt>
      <trkpt lat="44.96348" lon="3.94621">
        <ele>890</ele>
        <time>2022-12-22T15:37:14Z</time>
      </trkpt>
      <trkpt lat="44.96203" lon="3.94824">
        <ele>892</ele>
        <time>2022-12-22T15:37:14Z</time>
      </trkpt>
      <trkpt lat="44.96189" lon="3.94895">
        <ele>897</ele>
        <time>2022-12-22T15:37:14Z</time>
      </trkpt>
      <trkpt lat="44.96195" lon="3.94982">
        <ele>904</ele>
        <time>2022-12-22T15:37:14Z</time>
      </trkpt>
      <trkpt lat="44.96208" lon="3.95081">
        <ele>909</ele>
        <time>2022-12-22T15:37:14Z</time>
      </trkpt>
      <trkpt lat="44.9623" lon="3.95485">
        <ele>908</ele>
        <time>2022-12-22T15:37:14Z</time>
      </trkpt>
      <trkpt lat="44.96232" lon="3.95561">
        <ele>912</ele>
        <time>2022-12-22T15:37:14Z</time>
      </trkpt>
      <trkpt lat="44.96242" lon="3.95659">
        <ele>915</ele>
        <time>2022-12-22T15:37:14Z</time>
      </trkpt>
      <trkpt lat="44.96255" lon="3.95761">
        <ele>907</ele>
        <time>2022-12-22T15:37:14Z</time>
      </trkpt>
      <trkpt lat="44.96256" lon="3.95856">
        <ele>897</ele>
        <time>2022-12-22T15:37:14Z</time>
      </trkpt>
      <trkpt lat="44.96205" lon="3.95975">
        <ele>896</ele>
        <time>2022-12-22T15:37:14Z</time>
      </trkpt>
      <trkpt lat="44.96162" lon="3.96068">
        <ele>894</ele>
        <time>2022-12-22T15:37:14Z</time>
      </trkpt>
      <trkpt lat="44.96139" lon="3.96138">
        <ele>889</ele>
        <time>2022-12-22T15:37:14Z</time>
      </trkpt>
      <trkpt lat="44.96089" lon="3.96183">
        <ele>885</ele>
        <time>2022-12-22T15:37:14Z</time>
      </trkpt>
      <trkpt lat="44.96028" lon="3.96198">
        <ele>894</ele>
        <time>2022-12-22T15:37:14Z</time>
      </trkpt>
      <trkpt lat="44.95988" lon="3.96276">
        <ele>895</ele>
        <time>2022-12-22T15:37:14Z</time>
      </trkpt>
      <trkpt lat="44.95941" lon="3.96327">
        <ele>898</ele>
        <time>2022-12-22T15:37:14Z</time>
      </trkpt>
      <trkpt lat="44.95909" lon="3.96391">
        <ele>905</ele>
        <time>2022-12-22T15:37:14Z</time>
      </trkpt>
      <trkpt lat="44.95889" lon="3.96473">
        <ele>899</ele>
        <time>2022-12-22T15:37:14Z</time>
      </trkpt>
      <trkpt lat="44.95852" lon="3.96547">
        <ele>894</ele>
        <time>2022-12-22T15:37:14Z</time>
      </trkpt>
      <trkpt lat="44.95803" lon="3.96611">
        <ele>894</ele>
        <time>2022-12-22T15:37:14Z</time>
      </trkpt>
      <trkpt lat="44.957" lon="3.96708">
        <ele>894</ele>
        <time>2022-12-22T15:37:14Z</time>
      </trkpt>
      <trkpt lat="44.95625" lon="3.96829">
        <ele>894</ele>
        <time>2022-12-22T15:37:14Z</time>
      </trkpt>
      <trkpt lat="44.95554" lon="3.96954">
        <ele>895</ele>
        <time>2022-12-22T15:37:14Z</time>
      </trkpt>
      <trkpt lat="44.95536" lon="3.97063">
        <ele>892</ele>
        <time>2022-12-22T15:37:14Z</time>
      </trkpt>
      <trkpt lat="44.95538" lon="3.97069">
        <ele>889</ele>
        <time>2022-12-22T15:37:14Z</time>
      </trkpt>
      <trkpt lat="44.95495" lon="3.97059">
        <ele>892</ele>
        <time>2022-12-22T15:37:14Z</time>
      </trkpt>
      <trkpt lat="44.9548" lon="3.97072">
        <ele>901</ele>
        <time>2022-12-22T15:37:14Z</time>
      </trkpt>
      <trkpt lat="44.95465" lon="3.97077">
        <ele>904</ele>
        <time>2022-12-22T15:37:14Z</time>
      </trkpt>
      <trkpt lat="44.95453" lon="3.971">
        <ele>907</ele>
        <time>2022-12-22T15:37:14Z</time>
      </trkpt>
      <trkpt lat="44.95393" lon="3.97105">
        <ele>911</ele>
        <time>2022-12-22T15:37:14Z</time>
      </trkpt>
      <trkpt lat="44.95339" lon="3.97119">
        <ele>915</ele>
        <time>2022-12-22T15:37:14Z</time>
      </trkpt>
      <trkpt lat="44.95337" lon="3.97107">
        <ele>918</ele>
        <time>2022-12-22T15:37:14Z</time>
      </trkpt>
      <trkpt lat="44.95338" lon="3.97104">
        <ele>912</ele>
        <time>2022-12-22T15:37:14Z</time>
      </trkpt>
      <trkpt lat="44.95332" lon="3.97094">
        <ele>915</ele>
        <time>2022-12-22T15:37:14Z</time>
      </trkpt>
      <trkpt lat="44.95282" lon="3.97078">
        <ele>917</ele>
        <time>2022-12-22T15:37:14Z</time>
      </trkpt>
      <trkpt lat="44.95203" lon="3.97039">
        <ele>917</ele>
        <time>2022-12-22T15:37:14Z</time>
      </trkpt>
      <trkpt lat="44.95121" lon="3.97021">
        <ele>915</ele>
        <time>2022-12-22T15:37:14Z</time>
      </trkpt>
      <trkpt lat="44.95028" lon="3.9704">
        <ele>924</ele>
        <time>2022-12-22T15:37:14Z</time>
      </trkpt>
      <trkpt lat="44.94952" lon="3.9704">
        <ele>929</ele>
        <time>2022-12-22T15:37:14Z</time>
      </trkpt>
      <trkpt lat="44.94869" lon="3.96997">
        <ele>929</ele>
        <time>2022-12-22T15:37:14Z</time>
      </trkpt>
      <trkpt lat="44.94832" lon="3.97021">
        <ele>926</ele>
        <time>2022-12-22T15:37:14Z</time>
      </trkpt>
      <trkpt lat="44.94772" lon="3.97072">
        <ele>931</ele>
        <time>2022-12-22T15:37:14Z</time>
      </trkpt>
      <trkpt lat="44.94784" lon="3.97111">
        <ele>932</ele>
        <time>2022-12-22T15:37:14Z</time>
      </trkpt>
      <trkpt lat="44.94779" lon="3.97138">
        <ele>933</ele>
        <time>2022-12-22T15:37:14Z</time>
      </trkpt>
      <trkpt lat="44.94744" lon="3.97166">
        <ele>930</ele>
        <time>2022-12-22T15:37:14Z</time>
      </trkpt>
      <trkpt lat="44.94716" lon="3.97167">
        <ele>931</ele>
        <time>2022-12-22T15:37:14Z</time>
      </trkpt>
      <trkpt lat="44.94667" lon="3.9718">
        <ele>932</ele>
        <time>2022-12-22T15:37:14Z</time>
      </trkpt>
      <trkpt lat="44.94619" lon="3.97218">
        <ele>932</ele>
        <time>2022-12-22T15:37:14Z</time>
      </trkpt>
      <trkpt lat="44.946" lon="3.9725">
        <ele>932</ele>
        <time>2022-12-22T15:37:14Z</time>
      </trkpt>
      <trkpt lat="44.94586" lon="3.97338">
        <ele>932</ele>
        <time>2022-12-22T15:37:14Z</time>
      </trkpt>
      <trkpt lat="44.94609" lon="3.97553">
        <ele>932</ele>
        <time>2022-12-22T15:37:14Z</time>
      </trkpt>
      <trkpt lat="44.94618" lon="3.97639">
        <ele>932</ele>
        <time>2022-12-22T15:37:14Z</time>
      </trkpt>
      <trkpt lat="44.94635" lon="3.97765">
        <ele>932</ele>
        <time>2022-12-22T15:37:14Z</time>
      </trkpt>
      <trkpt lat="44.94617" lon="3.98022">
        <ele>932</ele>
        <time>2022-12-22T15:37:14Z</time>
      </trkpt>
      <trkpt lat="44.94612" lon="3.98083">
        <ele>932</ele>
        <time>2022-12-22T15:37:14Z</time>
      </trkpt>
      <trkpt lat="44.94622" lon="3.98201">
        <ele>932</ele>
        <time>2022-12-22T15:37:14Z</time>
      </trkpt>
      <trkpt lat="44.9466" lon="3.98277">
        <ele>932</ele>
        <time>2022-12-22T15:37:14Z</time>
      </trkpt>
      <trkpt lat="44.9467" lon="3.98433">
        <ele>932</ele>
        <time>2022-12-22T15:37:14Z</time>
      </trkpt>
      <trkpt lat="44.94682" lon="3.98477">
        <ele>932</ele>
        <time>2022-12-22T15:37:14Z</time>
      </trkpt>
      <trkpt lat="44.94666" lon="3.98593">
        <ele>932</ele>
        <time>2022-12-22T15:37:14Z</time>
      </trkpt>
      <trkpt lat="44.9469" lon="3.98757">
        <ele>932</ele>
        <time>2022-12-22T15:37:14Z</time>
      </trkpt>
      <trkpt lat="44.94663" lon="3.98881">
        <ele>932</ele>
        <time>2022-12-22T15:37:14Z</time>
      </trkpt>
      <trkpt lat="44.94677" lon="3.98903">
        <ele>932</ele>
        <time>2022-12-22T15:37:14Z</time>
      </trkpt>
      <trkpt lat="44.94657" lon="3.98935">
        <ele>932</ele>
        <time>2022-12-22T15:37:14Z</time>
      </trkpt>
      <trkpt lat="44.94616" lon="3.98961">
        <ele>932</ele>
        <time>2022-12-22T15:37:14Z</time>
      </trkpt>
      <trkpt lat="44.94488" lon="3.99045">
        <ele>932</ele>
        <time>2022-12-22T15:37:14Z</time>
      </trkpt>
      <trkpt lat="44.94452" lon="3.99072">
        <ele>935</ele>
        <time>2022-12-22T15:37:14Z</time>
      </trkpt>
      <trkpt lat="44.94419" lon="3.99094">
        <ele>937</ele>
        <time>2022-12-22T15:37:14Z</time>
      </trkpt>
      <trkpt lat="44.94342" lon="3.99179">
        <ele>936</ele>
        <time>2022-12-22T15:37:14Z</time>
      </trkpt>
      <trkpt lat="44.94308" lon="3.99223">
        <ele>933</ele>
        <time>2022-12-22T15:37:14Z</time>
      </trkpt>
      <trkpt lat="44.94263" lon="3.99245">
        <ele>938</ele>
        <time>2022-12-22T15:37:14Z</time>
      </trkpt>
      <trkpt lat="44.94192" lon="3.99292">
        <ele>941</ele>
        <time>2022-12-22T15:37:14Z</time>
      </trkpt>
      <trkpt lat="44.94139" lon="3.9932">
        <ele>942</ele>
        <time>2022-12-22T15:37:14Z</time>
      </trkpt>
      <trkpt lat="44.94102" lon="3.99327">
        <ele>947</ele>
        <time>2022-12-22T15:37:14Z</time>
      </trkpt>
      <trkpt lat="44.94004" lon="3.99406">
        <ele>948</ele>
        <time>2022-12-22T15:37:14Z</time>
      </trkpt>
      <trkpt lat="44.93974" lon="3.99405">
        <ele>952</ele>
        <time>2022-12-22T15:37:14Z</time>
      </trkpt>
      <trkpt lat="44.93942" lon="3.9942">
        <ele>950</ele>
        <time>2022-12-22T15:37:14Z</time>
      </trkpt>
      <trkpt lat="44.93923" lon="3.99446">
        <ele>943</ele>
        <time>2022-12-22T15:37:14Z</time>
      </trkpt>
      <trkpt lat="44.93907" lon="3.99473">
        <ele>937</ele>
        <time>2022-12-22T15:37:14Z</time>
      </trkpt>
      <trkpt lat="44.93897" lon="3.99494">
        <ele>936</ele>
        <time>2022-12-22T15:37:14Z</time>
      </trkpt>
      <trkpt lat="44.93888" lon="3.99523">
        <ele>935</ele>
        <time>2022-12-22T15:37:14Z</time>
      </trkpt>
      <trkpt lat="44.93886" lon="3.99535">
        <ele>939</ele>
        <time>2022-12-22T15:37:14Z</time>
      </trkpt>
      <trkpt lat="44.93886" lon="3.99543">
        <ele>938</ele>
        <time>2022-12-22T15:37:14Z</time>
      </trkpt>
      <trkpt lat="44.93892" lon="3.99568">
        <ele>941</ele>
        <time>2022-12-22T15:37:14Z</time>
      </trkpt>
      <trkpt lat="44.93892" lon="3.99568">
        <ele>941.4</ele>
        <time>2022-12-22T15:37:14Z</time>
      </trkpt>
      <trkpt lat="44.93907" lon="3.99593">
        <ele>944.4</ele>
        <time>2022-12-22T15:37:14Z</time>
      </trkpt>
      <trkpt lat="44.93917" lon="3.99602">
        <ele>945.1</ele>
        <time>2022-12-22T15:37:14Z</time>
      </trkpt>
      <trkpt lat="44.93917" lon="3.99602">
        <ele>945.1</ele>
        <time>2022-12-22T15:37:14Z</time>
      </trkpt>
      <trkpt lat="44.93917" lon="3.99602">
        <ele>945.1</ele>
        <time>2022-12-22T15:37:14Z</time>
      </trkpt>
      <trkpt lat="44.93932" lon="3.99605">
        <ele>946</ele>
        <time>2022-12-22T15:37:14Z</time>
      </trkpt>
      <trkpt lat="44.93942" lon="3.99604">
        <ele>946.3</ele>
        <time>2022-12-22T15:37:14Z</time>
      </trkpt>
      <trkpt lat="44.93953" lon="3.99598">
        <ele>946.5</ele>
        <time>2022-12-22T15:37:14Z</time>
      </trkpt>
      <trkpt lat="44.93989" lon="3.99593">
        <ele>948.1</ele>
        <time>2022-12-22T15:37:14Z</time>
      </trkpt>
      <trkpt lat="44.93989" lon="3.99593">
        <ele>948.1</ele>
        <time>2022-12-22T15:37:14Z</time>
      </trkpt>
      <trkpt lat="44.94038" lon="3.99579">
        <ele>950.9</ele>
        <time>2022-12-22T15:37:14Z</time>
      </trkpt>
      <trkpt lat="44.94062" lon="3.99592">
        <ele>952.9</ele>
        <time>2022-12-22T15:37:14Z</time>
      </trkpt>
      <trkpt lat="44.94094" lon="3.99579">
        <ele>954</ele>
        <time>2022-12-22T15:37:14Z</time>
      </trkpt>
      <trkpt lat="44.94101" lon="3.99584">
        <ele>954.6</ele>
        <time>2022-12-22T15:37:14Z</time>
      </trkpt>
      <trkpt lat="44.94127" lon="3.99577">
        <ele>954.2</ele>
        <time>2022-12-22T15:37:14Z</time>
      </trkpt>
      <trkpt lat="44.94137" lon="3.99578">
        <ele>954.1</ele>
        <time>2022-12-22T15:37:14Z</time>
      </trkpt>
      <trkpt lat="44.94145" lon="3.99589">
        <ele>955</ele>
        <time>2022-12-22T15:37:14Z</time>
      </trkpt>
      <trkpt lat="44.94158" lon="3.99592">
        <ele>956.6</ele>
        <time>2022-12-22T15:37:14Z</time>
      </trkpt>
      <trkpt lat="44.94204" lon="3.99542">
        <ele>957.9</ele>
        <time>2022-12-22T15:37:14Z</time>
      </trkpt>
      <trkpt lat="44.9428" lon="3.9955">
        <ele>964.4</ele>
        <time>2022-12-22T15:37:14Z</time>
      </trkpt>
      <trkpt lat="44.94299" lon="3.99556">
        <ele>965</ele>
        <time>2022-12-22T15:37:14Z</time>
      </trkpt>
      <trkpt lat="44.94374" lon="3.99517">
        <ele>966.3</ele>
        <time>2022-12-22T15:37:14Z</time>
      </trkpt>
      <trkpt lat="44.94383" lon="3.99509">
        <ele>966.5</ele>
        <time>2022-12-22T15:37:14Z</time>
      </trkpt>
      <trkpt lat="44.9439" lon="3.99499">
        <ele>966</ele>
        <time>2022-12-22T15:37:14Z</time>
      </trkpt>
      <trkpt lat="44.944" lon="3.99491">
        <ele>966.3</ele>
        <time>2022-12-22T15:37:14Z</time>
      </trkpt>
      <trkpt lat="44.94415" lon="3.99487">
        <ele>967.8</ele>
        <time>2022-12-22T15:37:14Z</time>
      </trkpt>
      <trkpt lat="44.9443" lon="3.99487">
        <ele>969.6</ele>
        <time>2022-12-22T15:37:14Z</time>
      </trkpt>
      <trkpt lat="44.94496" lon="3.99459">
        <ele>974.4</ele>
        <time>2022-12-22T15:37:14Z</time>
      </trkpt>
      <trkpt lat="44.945" lon="3.99469">
        <ele>975.7</ele>
        <time>2022-12-22T15:37:14Z</time>
      </trkpt>
      <trkpt lat="44.9451" lon="3.99485">
        <ele>978.2</ele>
        <time>2022-12-22T15:37:14Z</time>
      </trkpt>
      <trkpt lat="44.94524" lon="3.99488">
        <ele>980.6</ele>
        <time>2022-12-22T15:37:14Z</time>
      </trkpt>
      <trkpt lat="44.94556" lon="3.99489">
        <ele>985.5</ele>
        <time>2022-12-22T15:37:14Z</time>
      </trkpt>
      <trkpt lat="44.94606" lon="3.99502">
        <ele>994.9</ele>
        <time>2022-12-22T15:37:14Z</time>
      </trkpt>
      <trkpt lat="44.94658" lon="3.9949">
        <ele>1003.3</ele>
        <time>2022-12-22T15:37:14Z</time>
      </trkpt>
      <trkpt lat="44.94658" lon="3.9949">
        <ele>1003.3</ele>
        <time>2022-12-22T15:37:14Z</time>
      </trkpt>
      <trkpt lat="44.94665" lon="3.99502">
        <ele>1008.1</ele>
        <time>2022-12-22T15:37:14Z</time>
      </trkpt>
      <trkpt lat="44.94666" lon="3.99514">
        <ele>1010.8</ele>
        <time>2022-12-22T15:37:14Z</time>
      </trkpt>
      <trkpt lat="44.9466" lon="3.99528">
        <ele>1012.5</ele>
        <time>2022-12-22T15:37:14Z</time>
      </trkpt>
      <trkpt lat="44.94566" lon="3.99641">
        <ele>1024.1</ele>
        <time>2022-12-22T15:37:14Z</time>
      </trkpt>
      <trkpt lat="44.94537" lon="3.99704">
        <ele>1026.2</ele>
        <time>2022-12-22T15:37:14Z</time>
      </trkpt>
      <trkpt lat="44.94534" lon="3.99719">
        <ele>1026.7</ele>
        <time>2022-12-22T15:37:14Z</time>
      </trkpt>
      <trkpt lat="44.94551" lon="3.99875">
        <ele>1026.2</ele>
        <time>2022-12-22T15:37:14Z</time>
      </trkpt>
      <trkpt lat="44.9456" lon="3.99929">
        <ele>1025.8</ele>
        <time>2022-12-22T15:37:14Z</time>
      </trkpt>
      <trkpt lat="44.94574" lon="4.00132">
        <ele>1025.3</ele>
        <time>2022-12-22T15:37:14Z</time>
      </trkpt>
      <trkpt lat="44.94585" lon="4.00182">
        <ele>1026.5</ele>
        <time>2022-12-22T15:37:14Z</time>
      </trkpt>
      <trkpt lat="44.94591" lon="4.00192">
        <ele>1026.6</ele>
        <time>2022-12-22T15:37:14Z</time>
      </trkpt>
      <trkpt lat="44.94608" lon="4.00208">
        <ele>1027</ele>
        <time>2022-12-22T15:37:14Z</time>
      </trkpt>
      <trkpt lat="44.94639" lon="4.00419">
        <ele>1035.1</ele>
        <time>2022-12-22T15:37:14Z</time>
      </trkpt>
      <trkpt lat="44.94639" lon="4.0047">
        <ele>1036</ele>
        <time>2022-12-22T15:37:14Z</time>
      </trkpt>
      <trkpt lat="44.94617" lon="4.00534">
        <ele>1037.2</ele>
        <time>2022-12-22T15:37:14Z</time>
      </trkpt>
      <trkpt lat="44.94603" lon="4.00565">
        <ele>1037.4</ele>
        <time>2022-12-22T15:37:14Z</time>
      </trkpt>
      <trkpt lat="44.94578" lon="4.00721">
        <ele>1038.3</ele>
        <time>2022-12-22T15:37:14Z</time>
      </trkpt>
      <trkpt lat="44.94591" lon="4.01024">
        <ele>1039.8</ele>
        <time>2022-12-22T15:37:14Z</time>
      </trkpt>
      <trkpt lat="44.94589" lon="4.01036">
        <ele>1040</ele>
        <time>2022-12-22T15:37:14Z</time>
      </trkpt>
      <trkpt lat="44.94553" lon="4.011">
        <ele>1038.6</ele>
        <time>2022-12-22T15:37:14Z</time>
      </trkpt>
      <trkpt lat="44.94559" lon="4.01164">
        <ele>1041.9</ele>
        <time>2022-12-22T15:37:14Z</time>
      </trkpt>
      <trkpt lat="44.94584" lon="4.01276">
        <ele>1047</ele>
        <time>2022-12-22T15:37:14Z</time>
      </trkpt>
      <trkpt lat="44.94593" lon="4.01302">
        <ele>1047.6</ele>
        <time>2022-12-22T15:37:14Z</time>
      </trkpt>
      <trkpt lat="44.94606" lon="4.01419">
        <ele>1050.8</ele>
        <time>2022-12-22T15:37:14Z</time>
      </trkpt>
      <trkpt lat="44.946" lon="4.01477">
        <ele>1054.7</ele>
        <time>2022-12-22T15:37:14Z</time>
      </trkpt>
      <trkpt lat="44.94557" lon="4.01624">
        <ele>1061.5</ele>
        <time>2022-12-22T15:37:14Z</time>
      </trkpt>
      <trkpt lat="44.94557" lon="4.01637">
        <ele>1061.9</ele>
        <time>2022-12-22T15:37:14Z</time>
      </trkpt>
      <trkpt lat="44.94518" lon="4.01767">
        <ele>1065.5</ele>
        <time>2022-12-22T15:37:14Z</time>
      </trkpt>
      <trkpt lat="44.94512" lon="4.01842">
        <ele>1069.4</ele>
        <time>2022-12-22T15:37:14Z</time>
      </trkpt>
      <trkpt lat="44.94512" lon="4.01842">
        <ele>1069.4</ele>
        <time>2022-12-22T15:37:14Z</time>
      </trkpt>
      <trkpt lat="44.94476" lon="4.02065">
        <ele>1079.6</ele>
        <time>2022-12-22T15:37:14Z</time>
      </trkpt>
      <trkpt lat="44.94469" lon="4.02207">
        <ele>1082.9</ele>
        <time>2022-12-22T15:37:14Z</time>
      </trkpt>
      <trkpt lat="44.94453" lon="4.02327">
        <ele>1083.5</ele>
        <time>2022-12-22T15:37:14Z</time>
      </trkpt>
      <trkpt lat="44.94453" lon="4.02437">
        <ele>1085.1</ele>
        <time>2022-12-22T15:37:14Z</time>
      </trkpt>
      <trkpt lat="44.94329" lon="4.02847">
        <ele>1087.1</ele>
        <time>2022-12-22T15:37:14Z</time>
      </trkpt>
      <trkpt lat="44.94282" lon="4.02927">
        <ele>1090.2</ele>
        <time>2022-12-22T15:37:14Z</time>
      </trkpt>
      <trkpt lat="44.94252" lon="4.03022">
        <ele>1090.9</ele>
        <time>2022-12-22T15:37:14Z</time>
      </trkpt>
      <trkpt lat="44.94185" lon="4.03135">
        <ele>1090.4</ele>
        <time>2022-12-22T15:37:14Z</time>
      </trkpt>
      <trkpt lat="44.94133" lon="4.03349">
        <ele>1087.8</ele>
        <time>2022-12-22T15:37:14Z</time>
      </trkpt>
      <trkpt lat="44.94138" lon="4.03859">
        <ele>1087.1</ele>
        <time>2022-12-22T15:37:14Z</time>
      </trkpt>
      <trkpt lat="44.94147" lon="4.03885">
        <ele>1086.7</ele>
        <time>2022-12-22T15:37:14Z</time>
      </trkpt>
      <trkpt lat="44.94183" lon="4.03966">
        <ele>1087.8</ele>
        <time>2022-12-22T15:37:14Z</time>
      </trkpt>
      <trkpt lat="44.94187" lon="4.03984">
        <ele>1089.4</ele>
        <time>2022-12-22T15:37:14Z</time>
      </trkpt>
      <trkpt lat="44.94187" lon="4.04019">
        <ele>1092.1</ele>
        <time>2022-12-22T15:37:14Z</time>
      </trkpt>
      <trkpt lat="44.94191" lon="4.0403">
        <ele>1092.6</ele>
        <time>2022-12-22T15:37:14Z</time>
      </trkpt>
      <trkpt lat="44.94217" lon="4.04062">
        <ele>1095.2</ele>
        <time>2022-12-22T15:37:14Z</time>
      </trkpt>
      <trkpt lat="44.94231" lon="4.04071">
        <ele>1096.5</ele>
        <time>2022-12-22T15:37:14Z</time>
      </trkpt>
      <trkpt lat="44.9424" lon="4.0408">
        <ele>1097.2</ele>
        <time>2022-12-22T15:37:14Z</time>
      </trkpt>
      <trkpt lat="44.94244" lon="4.04089">
        <ele>1097.8</ele>
        <time>2022-12-22T15:37:14Z</time>
      </trkpt>
      <trkpt lat="44.94293" lon="4.04242">
        <ele>1104.4</ele>
        <time>2022-12-22T15:37:14Z</time>
      </trkpt>
      <trkpt lat="44.94312" lon="4.04286">
        <ele>1106.7</ele>
        <time>2022-12-22T15:37:14Z</time>
      </trkpt>
      <trkpt lat="44.94325" lon="4.04336">
        <ele>1106.6</ele>
        <time>2022-12-22T15:37:14Z</time>
      </trkpt>
      <trkpt lat="44.94346" lon="4.04364">
        <ele>1106</ele>
        <time>2022-12-22T15:37:14Z</time>
      </trkpt>
      <trkpt lat="44.94403" lon="4.04422">
        <ele>1104.5</ele>
        <time>2022-12-22T15:37:14Z</time>
      </trkpt>
      <trkpt lat="44.94427" lon="4.04453">
        <ele>1103.6</ele>
        <time>2022-12-22T15:37:14Z</time>
      </trkpt>
      <trkpt lat="44.94488" lon="4.0452">
        <ele>1102.8</ele>
        <time>2022-12-22T15:37:14Z</time>
      </trkpt>
      <trkpt lat="44.94488" lon="4.0452">
        <ele>1102.8</ele>
        <time>2022-12-22T15:37:14Z</time>
      </trkpt>
      <trkpt lat="44.94497" lon="4.04518">
        <ele>1102.7</ele>
        <time>2022-12-22T15:37:14Z</time>
      </trkpt>
      <trkpt lat="44.94648" lon="4.04671">
        <ele>1097.2</ele>
        <time>2022-12-22T15:37:14Z</time>
      </trkpt>
      <trkpt lat="44.94658" lon="4.04686">
        <ele>1097.7</ele>
        <time>2022-12-22T15:37:14Z</time>
      </trkpt>
      <trkpt lat="44.94631" lon="4.04707">
        <ele>1097.6</ele>
        <time>2022-12-22T15:37:14Z</time>
      </trkpt>
      <trkpt lat="44.94624" lon="4.04719">
        <ele>1097</ele>
        <time>2022-12-22T15:37:14Z</time>
      </trkpt>
      <trkpt lat="44.94616" lon="4.0474">
        <ele>1096.4</ele>
        <time>2022-12-22T15:37:14Z</time>
      </trkpt>
      <trkpt lat="44.94558" lon="4.05021">
        <ele>1079.7</ele>
        <time>2022-12-22T15:37:14Z</time>
      </trkpt>
      <trkpt lat="44.9455" lon="4.05038">
        <ele>1078.5</ele>
        <time>2022-12-22T15:37:14Z</time>
      </trkpt>
      <trkpt lat="44.9442" lon="4.05221">
        <ele>1073</ele>
        <time>2022-12-22T15:37:14Z</time>
      </trkpt>
      <trkpt lat="44.94391" lon="4.05248">
        <ele>1074.9</ele>
        <time>2022-12-22T15:37:14Z</time>
      </trkpt>
      <trkpt lat="44.94378" lon="4.05269">
        <ele>1074.7</ele>
        <time>2022-12-22T15:37:14Z</time>
      </trkpt>
      <trkpt lat="44.94358" lon="4.05312">
        <ele>1075.2</ele>
        <time>2022-12-22T15:37:14Z</time>
      </trkpt>
      <trkpt lat="44.94294" lon="4.05348">
        <ele>1078.2</ele>
        <time>2022-12-22T15:37:14Z</time>
      </trkpt>
      <trkpt lat="44.9419" lon="4.05393">
        <ele>1085</ele>
        <time>2022-12-22T15:37:14Z</time>
      </trkpt>
      <trkpt lat="44.94128" lon="4.05435">
        <ele>1086.9</ele>
        <time>2022-12-22T15:37:14Z</time>
      </trkpt>
      <trkpt lat="44.941" lon="4.05467">
        <ele>1087.4</ele>
        <time>2022-12-22T15:37:14Z</time>
      </trkpt>
      <trkpt lat="44.94078" lon="4.05546">
        <ele>1090.7</ele>
        <time>2022-12-22T15:37:14Z</time>
      </trkpt>
      <trkpt lat="44.94066" lon="4.05566">
        <ele>1092.2</ele>
        <time>2022-12-22T15:37:14Z</time>
      </trkpt>
      <trkpt lat="44.94017" lon="4.05611">
        <ele>1095.6</ele>
        <time>2022-12-22T15:37:14Z</time>
      </trkpt>
      <trkpt lat="44.9396" lon="4.05726">
        <ele>1102.2</ele>
        <time>2022-12-22T15:37:14Z</time>
      </trkpt>
      <trkpt lat="44.93916" lon="4.05831">
        <ele>1107.5</ele>
        <time>2022-12-22T15:37:14Z</time>
      </trkpt>
      <trkpt lat="44.93878" lon="4.05886">
        <ele>1111.1</ele>
        <time>2022-12-22T15:37:14Z</time>
      </trkpt>
      <trkpt lat="44.93842" lon="4.05918">
        <ele>1112.7</ele>
        <time>2022-12-22T15:37:14Z</time>
      </trkpt>
      <trkpt lat="44.93798" lon="4.05984">
        <ele>1115.5</ele>
        <time>2022-12-22T15:37:14Z</time>
      </trkpt>
      <trkpt lat="44.9379" lon="4.06003">
        <ele>1116.6</ele>
        <time>2022-12-22T15:37:14Z</time>
      </trkpt>
      <trkpt lat="44.93778" lon="4.06003">
        <ele>1115.4</ele>
        <time>2022-12-22T15:37:14Z</time>
      </trkpt>
      <trkpt lat="44.93754" lon="4.05997">
        <ele>1112.2</ele>
        <time>2022-12-22T15:37:14Z</time>
      </trkpt>
      <trkpt lat="44.93668" lon="4.0602">
        <ele>1108.2</ele>
        <time>2022-12-22T15:37:14Z</time>
      </trkpt>
      <trkpt lat="44.93628" lon="4.06016">
        <ele>1104.4</ele>
        <time>2022-12-22T15:37:14Z</time>
      </trkpt>
      <trkpt lat="44.93614" lon="4.0601">
        <ele>1102.6</ele>
        <time>2022-12-22T15:37:14Z</time>
      </trkpt>
      <trkpt lat="44.93605" lon="4.06013">
        <ele>1101.8</ele>
        <time>2022-12-22T15:37:14Z</time>
      </trkpt>
      <trkpt lat="44.93595" lon="4.06022">
        <ele>1101</ele>
        <time>2022-12-22T15:37:14Z</time>
      </trkpt>
      <trkpt lat="44.9358" lon="4.06047">
        <ele>1099.8</ele>
        <time>2022-12-22T15:37:14Z</time>
      </trkpt>
      <trkpt lat="44.93548" lon="4.06071">
        <ele>1098.4</ele>
        <time>2022-12-22T15:37:14Z</time>
      </trkpt>
      <trkpt lat="44.93537" lon="4.06074">
        <ele>1096.6</ele>
        <time>2022-12-22T15:37:14Z</time>
      </trkpt>
      <trkpt lat="44.93527" lon="4.06074">
        <ele>1095</ele>
        <time>2022-12-22T15:37:14Z</time>
      </trkpt>
      <trkpt lat="44.93517" lon="4.06065">
        <ele>1093.9</ele>
        <time>2022-12-22T15:37:14Z</time>
      </trkpt>
      <trkpt lat="44.93475" lon="4.05994">
        <ele>1086.2</ele>
        <time>2022-12-22T15:37:14Z</time>
      </trkpt>
      <trkpt lat="44.93456" lon="4.05987">
        <ele>1083.2</ele>
        <time>2022-12-22T15:37:14Z</time>
      </trkpt>
      <trkpt lat="44.93448" lon="4.06007">
        <ele>1082.8</ele>
        <time>2022-12-22T15:37:14Z</time>
      </trkpt>
      <trkpt lat="44.93373" lon="4.06105">
        <ele>1073.9</ele>
        <time>2022-12-22T15:37:14Z</time>
      </trkpt>
      <trkpt lat="44.93309" lon="4.06154">
        <ele>1076.3</ele>
        <time>2022-12-22T15:37:14Z</time>
      </trkpt>
      <trkpt lat="44.93248" lon="4.06229">
        <ele>1089.5</ele>
        <time>2022-12-22T15:37:14Z</time>
      </trkpt>
      <trkpt lat="44.93171" lon="4.06298">
        <ele>1096</ele>
        <time>2022-12-22T15:37:14Z</time>
      </trkpt>
      <trkpt lat="44.93165" lon="4.06335">
        <ele>1097.9</ele>
        <time>2022-12-22T15:37:14Z</time>
      </trkpt>
      <trkpt lat="44.93152" lon="4.06376">
        <ele>1100.6</ele>
        <time>2022-12-22T15:37:14Z</time>
      </trkpt>
      <trkpt lat="44.93187" lon="4.06357">
        <ele>1101.9</ele>
        <time>2022-12-22T15:37:14Z</time>
      </trkpt>
      <trkpt lat="44.93187" lon="4.06357">
        <ele>1101.9</ele>
        <time>2022-12-22T15:37:14Z</time>
      </trkpt>
      <trkpt lat="44.93145" lon="4.06382">
        <ele>1100.3</ele>
        <time>2022-12-22T15:37:14Z</time>
      </trkpt>
      <trkpt lat="44.93136" lon="4.06398">
        <ele>1100</ele>
        <time>2022-12-22T15:37:14Z</time>
      </trkpt>
      <trkpt lat="44.93121" lon="4.06453">
        <ele>1098.3</ele>
        <time>2022-12-22T15:37:14Z</time>
      </trkpt>
      <trkpt lat="44.93119" lon="4.06522">
        <ele>1098.7</ele>
        <time>2022-12-22T15:37:14Z</time>
      </trkpt>
      <trkpt lat="44.93108" lon="4.06595">
        <ele>1098.8</ele>
        <time>2022-12-22T15:37:14Z</time>
      </trkpt>
      <trkpt lat="44.93018" lon="4.06769">
        <ele>1094.2</ele>
        <time>2022-12-22T15:37:14Z</time>
      </trkpt>
      <trkpt lat="44.92981" lon="4.06889">
        <ele>1094.6</ele>
        <time>2022-12-22T15:37:14Z</time>
      </trkpt>
      <trkpt lat="44.92962" lon="4.06912">
        <ele>1093.3</ele>
        <time>2022-12-22T15:37:14Z</time>
      </trkpt>
      <trkpt lat="44.92944" lon="4.06956">
        <ele>1092.7</ele>
        <time>2022-12-22T15:37:14Z</time>
      </trkpt>
      <trkpt lat="44.9294" lon="4.0708">
        <ele>1089.7</ele>
        <time>2022-12-22T15:37:14Z</time>
      </trkpt>
      <trkpt lat="44.92944" lon="4.07171">
        <ele>1086.9</ele>
        <time>2022-12-22T15:37:14Z</time>
      </trkpt>
      <trkpt lat="44.92942" lon="4.07185">
        <ele>1087.1</ele>
        <time>2022-12-22T15:37:14Z</time>
      </trkpt>
      <trkpt lat="44.92915" lon="4.07247">
        <ele>1086.5</ele>
        <time>2022-12-22T15:37:14Z</time>
      </trkpt>
      <trkpt lat="44.9291" lon="4.07266">
        <ele>1085.9</ele>
        <time>2022-12-22T15:37:14Z</time>
      </trkpt>
      <trkpt lat="44.92874" lon="4.07787">
        <ele>1069.8</ele>
        <time>2022-12-22T15:37:14Z</time>
      </trkpt>
      <trkpt lat="44.92883" lon="4.07856">
        <ele>1067.3</ele>
        <time>2022-12-22T15:37:14Z</time>
      </trkpt>
      <trkpt lat="44.92836" lon="4.07951">
        <ele>1061.7</ele>
        <time>2022-12-22T15:37:14Z</time>
      </trkpt>
      <trkpt lat="44.92835" lon="4.07962">
        <ele>1060.3</ele>
        <time>2022-12-22T15:37:14Z</time>
      </trkpt>
      <trkpt lat="44.92837" lon="4.07973">
        <ele>1059.6</ele>
        <time>2022-12-22T15:37:14Z</time>
      </trkpt>
      <trkpt lat="44.92842" lon="4.07984">
        <ele>1058.3</ele>
        <time>2022-12-22T15:37:14Z</time>
      </trkpt>
      <trkpt lat="44.92868" lon="4.08009">
        <ele>1055.8</ele>
        <time>2022-12-22T15:37:14Z</time>
      </trkpt>
      <trkpt lat="44.92887" lon="4.08022">
        <ele>1052.9</ele>
        <time>2022-12-22T15:37:14Z</time>
      </trkpt>
      <trkpt lat="44.92895" lon="4.08031">
        <ele>1052.1</ele>
        <time>2022-12-22T15:37:14Z</time>
      </trkpt>
      <trkpt lat="44.929" lon="4.08055">
        <ele>1050.8</ele>
        <time>2022-12-22T15:37:14Z</time>
      </trkpt>
      <trkpt lat="44.92917" lon="4.08076">
        <ele>1049.3</ele>
        <time>2022-12-22T15:37:14Z</time>
      </trkpt>
      <trkpt lat="44.92928" lon="4.08097">
        <ele>1049.4</ele>
        <time>2022-12-22T15:37:14Z</time>
      </trkpt>
      <trkpt lat="44.92933" lon="4.08123">
        <ele>1048.4</ele>
        <time>2022-12-22T15:37:14Z</time>
      </trkpt>
      <trkpt lat="44.92933" lon="4.08142">
        <ele>1048.3</ele>
        <time>2022-12-22T15:37:14Z</time>
      </trkpt>
      <trkpt lat="44.92926" lon="4.08171">
        <ele>1043.3</ele>
        <time>2022-12-22T15:37:14Z</time>
      </trkpt>
      <trkpt lat="44.92915" lon="4.08189">
        <ele>1037</ele>
        <time>2022-12-22T15:37:14Z</time>
      </trkpt>
      <trkpt lat="44.92905" lon="4.08198">
        <ele>1039.5</ele>
        <time>2022-12-22T15:37:14Z</time>
      </trkpt>
      <trkpt lat="44.92887" lon="4.08208">
        <ele>1045.4</ele>
        <time>2022-12-22T15:37:14Z</time>
      </trkpt>
      <trkpt lat="44.92809" lon="4.08221">
        <ele>1049.6</ele>
        <time>2022-12-22T15:37:14Z</time>
      </trkpt>
      <trkpt lat="44.92778" lon="4.08243">
        <ele>1052</ele>
        <time>2022-12-22T15:37:14Z</time>
      </trkpt>
      <trkpt lat="44.92764" lon="4.08263">
        <ele>1052.4</ele>
        <time>2022-12-22T15:37:14Z</time>
      </trkpt>
      <trkpt lat="44.9267" lon="4.08531">
        <ele>1063.7</ele>
        <time>2022-12-22T15:37:14Z</time>
      </trkpt>
      <trkpt lat="44.92664" lon="4.08585">
        <ele>1065.4</ele>
        <time>2022-12-22T15:37:14Z</time>
      </trkpt>
      <trkpt lat="44.92682" lon="4.08913">
        <ele>1077.7</ele>
        <time>2022-12-22T15:37:14Z</time>
      </trkpt>
      <trkpt lat="44.92662" lon="4.09152">
        <ele>1084.5</ele>
        <time>2022-12-22T15:37:14Z</time>
      </trkpt>
      <trkpt lat="44.92664" lon="4.09246">
        <ele>1089.6</ele>
        <time>2022-12-22T15:37:14Z</time>
      </trkpt>
      <trkpt lat="44.92665" lon="4.09275">
        <ele>1091.6</ele>
        <time>2022-12-22T15:37:14Z</time>
      </trkpt>
      <trkpt lat="44.92665" lon="4.09275">
        <ele>1091.6</ele>
        <time>2022-12-22T15:37:14Z</time>
      </trkpt>
      <trkpt lat="44.92652" lon="4.09306">
        <ele>1092.8</ele>
        <time>2022-12-22T15:37:14Z</time>
      </trkpt>
      <trkpt lat="44.92552" lon="4.10096">
        <ele>1104.4</ele>
        <time>2022-12-22T15:37:14Z</time>
      </trkpt>
      <trkpt lat="44.92557" lon="4.10198">
        <ele>1108.5</ele>
        <time>2022-12-22T15:37:14Z</time>
      </trkpt>
      <trkpt lat="44.9254" lon="4.10306">
        <ele>1110.3</ele>
        <time>2022-12-22T15:37:14Z</time>
      </trkpt>
      <trkpt lat="44.92437" lon="4.10483">
        <ele>1115.4</ele>
        <time>2022-12-22T15:37:14Z</time>
      </trkpt>
      <trkpt lat="44.92325" lon="4.10586">
        <ele>1119.7</ele>
        <time>2022-12-22T15:37:14Z</time>
      </trkpt>
      <trkpt lat="44.92167" lon="4.10665">
        <ele>1128.4</ele>
        <time>2022-12-22T15:37:14Z</time>
      </trkpt>
      <trkpt lat="44.92139" lon="4.10702">
        <ele>1131.4</ele>
        <time>2022-12-22T15:37:14Z</time>
      </trkpt>
      <trkpt lat="44.91982" lon="4.10986">
        <ele>1147.4</ele>
        <time>2022-12-22T15:37:14Z</time>
      </trkpt>
      <trkpt lat="44.91935" lon="4.11112">
        <ele>1151.2</ele>
        <time>2022-12-22T15:37:14Z</time>
      </trkpt>
      <trkpt lat="44.91935" lon="4.11112">
        <ele>1151.2</ele>
        <time>2022-12-22T15:37:14Z</time>
      </trkpt>
      <trkpt lat="44.91911" lon="4.11146">
        <ele>1147.1</ele>
        <time>2022-12-22T15:37:14Z</time>
      </trkpt>
      <trkpt lat="44.91787" lon="4.11322">
        <ele>1135</ele>
        <time>2022-12-22T15:37:14Z</time>
      </trkpt>
      <trkpt lat="44.91477" lon="4.11485">
        <ele>1165.5</ele>
        <time>2022-12-22T15:37:14Z</time>
      </trkpt>
      <trkpt lat="44.91394" lon="4.11485">
        <ele>1159.4</ele>
        <time>2022-12-22T15:37:14Z</time>
      </trkpt>
      <trkpt lat="44.91288" lon="4.11653">
        <ele>1176.9</ele>
        <time>2022-12-22T15:37:14Z</time>
      </trkpt>
      <trkpt lat="44.91191" lon="4.12052">
        <ele>1194.9</ele>
        <time>2022-12-22T15:37:14Z</time>
      </trkpt>
      <trkpt lat="44.91012" lon="4.12399">
        <ele>1208.4</ele>
        <time>2022-12-22T15:37:14Z</time>
      </trkpt>
      <trkpt lat="44.90907" lon="4.12577">
        <ele>1218</ele>
        <time>2022-12-22T15:37:14Z</time>
      </trkpt>
      <trkpt lat="44.90785" lon="4.1294">
        <ele>1235.1</ele>
        <time>2022-12-22T15:37:14Z</time>
      </trkpt>
      <trkpt lat="44.90744" lon="4.13279">
        <ele>1247.5</ele>
        <time>2022-12-22T15:37:14Z</time>
      </trkpt>
      <trkpt lat="44.90766" lon="4.13517">
        <ele>1257</ele>
        <time>2022-12-22T15:37:14Z</time>
      </trkpt>
      <trkpt lat="44.90695" lon="4.13858">
        <ele>1270.4</ele>
        <time>2022-12-22T15:37:14Z</time>
      </trkpt>
      <trkpt lat="44.90604" lon="4.14139">
        <ele>1283.4</ele>
        <time>2022-12-22T15:37:14Z</time>
      </trkpt>
      <trkpt lat="44.9053" lon="4.14339">
        <ele>1287.5</ele>
        <time>2022-12-22T15:37:14Z</time>
      </trkpt>
      <trkpt lat="44.90466" lon="4.1457">
        <ele>1297.6</ele>
        <time>2022-12-22T15:37:14Z</time>
      </trkpt>
      <trkpt lat="44.90456" lon="4.14718">
        <ele>1305.4</ele>
        <time>2022-12-22T15:37:14Z</time>
      </trkpt>
      <trkpt lat="44.90473" lon="4.14878">
        <ele>1314.8</ele>
        <time>2022-12-22T15:37:14Z</time>
      </trkpt>
      <trkpt lat="44.90464" lon="4.15026">
        <ele>1325.3</ele>
        <time>2022-12-22T15:37:14Z</time>
      </trkpt>
      <trkpt lat="44.9044" lon="4.15166">
        <ele>1329.7</ele>
        <time>2022-12-22T15:37:14Z</time>
      </trkpt>
      <trkpt lat="44.90414" lon="4.15258">
        <ele>1333.7</ele>
        <time>2022-12-22T15:37:14Z</time>
      </trkpt>
      <trkpt lat="44.90362" lon="4.15346">
        <ele>1334.1</ele>
        <time>2022-12-22T15:37:14Z</time>
      </trkpt>
      <trkpt lat="44.90294" lon="4.15464">
        <ele>1333.5</ele>
        <time>2022-12-22T15:37:14Z</time>
      </trkpt>
      <trkpt lat="44.90281" lon="4.15522">
        <ele>1336</ele>
        <time>2022-12-22T15:37:14Z</time>
      </trkpt>
      <trkpt lat="44.90318" lon="4.1557">
        <ele>1338.5</ele>
        <time>2022-12-22T15:37:14Z</time>
      </trkpt>
      <trkpt lat="44.90355" lon="4.15582">
        <ele>1340.5</ele>
        <time>2022-12-22T15:37:14Z</time>
      </trkpt>
      <trkpt lat="44.90374" lon="4.15595">
        <ele>1342.5</ele>
        <time>2022-12-22T15:37:14Z</time>
      </trkpt>
      <trkpt lat="44.90374" lon="4.15595">
        <ele>1342.5</ele>
        <time>2022-12-22T15:37:14Z</time>
      </trkpt>
      <trkpt lat="44.90393" lon="4.15572">
        <ele>1343.4</ele>
        <time>2022-12-22T15:37:14Z</time>
      </trkpt>
      <trkpt lat="44.90419" lon="4.15505">
        <ele>1343.2</ele>
        <time>2022-12-22T15:37:14Z</time>
      </trkpt>
      <trkpt lat="44.90436" lon="4.1549">
        <ele>1344.4</ele>
        <time>2022-12-22T15:37:14Z</time>
      </trkpt>
      <trkpt lat="44.90462" lon="4.15484">
        <ele>1346.9</ele>
        <time>2022-12-22T15:37:14Z</time>
      </trkpt>
      <trkpt lat="44.90469" lon="4.15479">
        <ele>1347.7</ele>
        <time>2022-12-22T15:37:14Z</time>
      </trkpt>
      <trkpt lat="44.90491" lon="4.15457">
        <ele>1349.6</ele>
        <time>2022-12-22T15:37:14Z</time>
      </trkpt>
      <trkpt lat="44.905" lon="4.15455">
        <ele>1350.4</ele>
        <time>2022-12-22T15:37:14Z</time>
      </trkpt>
    </trkseg>
  </trk>
</gpx>